Weather History for Punta Gorda, FL

Change the Weather History Date:

Monday, January 7, 2013

  Actual Average Record
Temperature  
Mean Temperature 69 °F -  
Max Temperature 75 °F 71 °F 84 °F (1998)
Min Temperature 62 °F 48 °F 34 °F (2001)
Cooling Degree Days 4    
Growing Degree Days 19 (Base 50)    
Moisture  
Dew Point 64 °F    
Average Humidity 88    
Maximum Humidity 100    
Minimum Humidity 64    
Precipitation  
Precipitation 0.01 in - - ()
Sea Level Pressure  
Sea Level Pressure 30.15 in    
Wind  
Wind Speed 8 mph (NE)    
Max Wind Speed 16 mph    
Max Gust Speed -    
Visibility 8 miles    
Events      
Averages and records for this station are not official NWS values.
T = Trace of Precipitation, MM = Missing Value Source: NWS Daily Summary

Daily Weather History Graph

Daily Weather History Graph

Search for Another Location

Airport:

Trip Planner

Search our weather history database for the weather conditions in past years. The results will help you decide how hot, cold, wet, or windy it might be!

Date:

Astronomy

Jan. 07, 2013 Rise Set
Actual Time 7:18 AM EST 5:50 PM EST
Civil Twilight 6:53 AM EST 6:15 PM EST
Nautical Twilight 6:24 AM EST 6:44 PM EST
Astronomical Twilight 5:56 AM EST 7:12 PM EST
Moon 2:46 AM EST (1/7) 1:56 PM EST (1/7)
Length of Visible Light 11h 22m
Length of Day
10h 32m
Waning Crescent, 23% of the Moon is Illuminated
Jan 7
Waning Crescent
Jan 11
New
Jan 18
First Quarter
Jan 26
Full
Feb 3
Last Quarter

Hourly Weather History & Observations

Time (EST) Temp. Dew Point Humidity Pressure Visibility Wind Dir Wind Speed Gust Speed Precip Events Conditions
12:53 AM 66.0 °F 64.9 °F 96% 30.13 in 8.0 mi East 3.5 mph - N/A   Scattered Clouds
1:53 AM 66.9 °F 66.0 °F 97% 30.14 in 8.0 mi ENE 5.8 mph - N/A   Overcast
2:10 AM 66.2 °F 66.2 °F 100% 30.13 in 7.0 mi ENE 3.5 mph - N/A   Overcast
2:28 AM 68.0 °F 66.2 °F 94% 30.13 in 7.0 mi North 4.6 mph - N/A   Overcast
2:53 AM 68.0 °F 66.0 °F 93% 30.12 in 8.0 mi ENE 8.1 mph - N/A   Overcast
3:30 AM 68.0 °F 66.2 °F 94% 30.12 in 8.0 mi NNE 5.8 mph - N/A   Overcast
3:53 AM 68.0 °F 66.0 °F 93% 30.12 in 7.0 mi NE 5.8 mph - N/A   Overcast
4:00 AM 68.0 °F 66.2 °F 94% 30.11 in 7.0 mi NE 6.9 mph - N/A   Overcast
4:21 AM 68.0 °F 66.2 °F 94% 30.12 in 7.0 mi NE 6.9 mph - N/A   Overcast
4:37 AM 68.0 °F 66.2 °F 94% 30.12 in 8.0 mi NE 10.4 mph - N/A   Overcast
4:53 AM 68.0 °F 66.0 °F 93% 30.13 in 9.0 mi NE 9.2 mph - N/A   Overcast
5:02 AM 68.0 °F 66.2 °F 94% 30.12 in 10.0 mi NE 8.1 mph - N/A   Overcast
5:29 AM 68.0 °F 66.2 °F 94% 30.12 in 9.0 mi NE 10.4 mph - N/A   Overcast
5:41 AM 68.0 °F 66.2 °F 94% 30.12 in 8.0 mi NE 10.4 mph - N/A   Overcast
5:53 AM 68.0 °F 66.0 °F 93% 30.13 in 8.0 mi ENE 9.2 mph - N/A   Overcast
6:53 AM 68.0 °F 66.0 °F 93% 30.15 in 9.0 mi NE 9.2 mph - N/A   Overcast
7:37 AM 66.2 °F 66.2 °F 100% 30.16 in 3.0 mi NE 9.2 mph - N/A   Overcast
7:53 AM 66.9 °F 64.9 °F 93% 30.17 in 2.0 mi NE 10.4 mph - N/A   Overcast
8:00 AM 66.2 °F 64.4 °F 94% 30.17 in 3.0 mi NE 11.5 mph - N/A   Overcast
8:14 AM 66.2 °F 64.4 °F 94% 30.17 in 2.0 mi ENE 11.5 mph - N/A   Overcast
8:53 AM 66.0 °F 64.9 °F 96% 30.19 in 2.0 mi ENE 11.5 mph - N/A   Overcast
9:41 AM 66.2 °F 64.4 °F 94% 30.20 in 4.0 mi NE 15.0 mph - 0.00 in   Overcast
9:53 AM 66.0 °F 64.0 °F 93% 30.21 in 4.0 mi ENE 11.5 mph - 0.00 in   Overcast
10:53 AM 66.9 °F 63.0 °F 87% 30.21 in 10.0 mi East 13.8 mph - N/A   Overcast
11:53 AM 66.9 °F 63.0 °F 87% 30.19 in 10.0 mi NE 12.7 mph - N/A   Overcast
12:53 PM 70.0 °F 64.0 °F 81% 30.15 in 10.0 mi ENE 11.5 mph - 0.01 in   Mostly Cloudy
1:02 PM 71.6 °F 62.6 °F 73% 30.15 in 10.0 mi NE 12.7 mph - N/A   Mostly Cloudy
1:53 PM 75.0 °F 63.0 °F 66% 30.13 in 10.0 mi ENE 10.4 mph - N/A   Mostly Cloudy
2:53 PM 75.0 °F 63.0 °F 66% 30.13 in 10.0 mi East 11.5 mph - N/A   Overcast
3:53 PM 75.0 °F 62.1 °F 64% 30.14 in 10.0 mi NE 11.5 mph - N/A   Overcast
4:09 PM 75.2 °F 62.6 °F 65% 30.14 in 10.0 mi NE 12.7 mph - N/A   Overcast
4:41 PM 75.2 °F 62.6 °F 65% 30.14 in 10.0 mi NE 13.8 mph - N/A   Overcast
4:53 PM 75.0 °F 62.1 °F 64% 30.14 in 10.0 mi NE 16.1 mph - N/A   Overcast
6:53 PM 69.1 °F 63.0 °F 81% 30.17 in 10.0 mi ENE 8.1 mph - N/A   Clear
7:35 PM 68.0 °F 62.6 °F 83% 30.18 in 10.0 mi NE 8.1 mph - N/A   Mostly Cloudy
7:53 PM 66.9 °F 63.0 °F 87% 30.18 in 10.0 mi NE 8.1 mph - N/A   Mostly Cloudy
8:09 PM 66.2 °F 62.6 °F 88% 30.18 in 10.0 mi NE 8.1 mph - N/A   Scattered Clouds
8:53 PM 66.0 °F 62.1 °F 87% 30.18 in 10.0 mi NE 9.2 mph - N/A   Clear
9:53 PM 64.0 °F 61.0 °F 90% 30.18 in 10.0 mi NE 6.9 mph - N/A   Partly Cloudy
10:53 PM 63.0 °F 60.1 °F 90% 30.17 in 10.0 mi ENE 5.8 mph - N/A   Clear
11:53 PM 62.1 °F 60.1 °F 93% 30.17 in 10.0 mi ENE 5.8 mph - N/A   Clear